Погода в Надоре

Марокко     35°09′16″N   2°57′42″W
темп.,
°C
ветер,
м/с
пор.,
м/с
влажн.,
%
обл.,
%
осадки,
мм/ч
давл.,
гПа
погр.,
м
14 апреля, ср
ср1400:00+15в3385100 0.2 1019199
03:00+15всв5782100 0.0 1016410
06:00+15в4681100 0.0 1017524
09:00+16в4575100 0.0 1017747
12:00+16всв6777100 0.0 1016810
15:00+15всв7880100 0.4 1015860
18:00+15св7884100 0.8 1015851
21:00+14всв7987100 0.9 1015668
15 апреля, чт
чт1500:00+14в3492100 3.9 1014471
03:00+14всв3594100 1.8 1012418
06:00+14всв6796100 6.3 1012550
09:00+14св81196100 3.4 1012801
12:00+14св101293100 10.9 1013814
15:00+13всв81090100 6.2 1013742
18:00+13всв7888100 7.2 1014749
21:00+13всв6888100 0.5 1016620
16 апреля, пт
пт1600:00+13всв6786100 1.1 1016579
03:00+13всв4685100 0.3 1015431
06:00+13в4579100 0.6 1016325
09:00+14в5670100 0.1 1017935
12:00+16в556331 0.1 10171106
15:00+16в336223 0.0 1016710
18:00+15вюв33655 0.0 1016370
21:00+14вюв227174 0.0 101768
17 апреля, сб
сб1700:00+13юв22725 0.0 101777
03:00+13зюз01765 0.1 101628
06:00+13юз117626 0.3 101648
09:00+16з12631 0.0 1017561
12:00+18сз45610 0.0 1016788
15:00+17ссз46660 0.0 1016728
18:00+15в767655 0.0 1018608
21:00+13юв44733 0.0 1022426
18 апреля, вс
вс1800:00+12ю22770 0.0 102398
03:00+12юв23730 0.0 102169
06:00+12юв33703 0.0 102276
09:00+16ююв23385 0.0 1022552
12:00+19в222970 0.0 1021909
15:00+19всв4334100 0.0 1020507
18:00+17в2243100 0.0 1021174
21:00+15юв3351100 0.0 102268